Wind_Speed
9 12 15 8 12 9 3 7 5 7 9 8 4 5 4 3 5 4 2 2 2 1 1 3 4 5 6 7 6 6 5 3 4 5 7 7 7 7 7 7 6 5 5 5 4 3 2 1 1
9 11 10 12 11 5 9 6 6 6 7 4 4 4 2 3 3 3 3 3 2 1 1 3 4 6 6 7 7 7 3 2 6 4 11 9 12 9 10 8 6 6 5 3 3 2 1 1 1
6 8 7 3 4 3 7 7 9 6 4 1 5 5 2 2 2 1 4 5 4 2 1 3 4 5 6 9 11 10 3 3 5 6 5 13 11 7 11 8 7 6 5 2 2 1 1 1 0
7 8 6 17 4 5 8 10 6 5 4 5 5 3 4 3 1 1 2 5 5 3 0 3 5 6 7 7 10 7 5 2 7 6 7 8 12 10 7 8 8 7 5 2 2 2 0 2 1
7 8 14 9 5 8 6 7 7 7 5 4 4 4 4 2 2 2 3 3 5 4 2 1 5 6 6 6 4 2 2 2 6 9 9 7 7 10 4 8 6 7 6 2 3 2 3 3 0
7 11 4 9 13 12 10 7 6 6 3 3 3 6 6 4 5 4 2 4 4 6 3 1 4 6 5 5 4 1 3 5 6 8 7 8 8 4 7 11 6 6 7 3 3 3 5 5 3
2 4 2 11 8 11 11 7 6 3 3 6 5 7 6 5 2 3 1 4 5 5 4 1 3 5 5 3 4 3 4 5 6 7 3 4 6 9 13 10 7 5 4 3 3 5 7 9 9
7 8 7 4 11 14 9 8 5 8 7 5 6 7 5 4 2 1 2 4 3 5 4 2 3 4 4 4 4 4 4 5 5 6 4 4 2 11 14 5 7 4 4 3 3 5 6 11 11
6 3 1 1 7 8 7 7 8 7 6 5 3 4 4 5 2 2 2 3 2 4 4 3 3 3 3 2 4 5 4 4 4 4 2 4 7 12 9 4 4 3 3 3 3 5 7 9 4
3 0 0 4 2 5 7 9 10 13 8 5 3 2 3 3 3 2 3 3 3 3 4 3 3 2 3 2 3 5 7 4 2 2 1 5 5 5 5 3 3 4 4 3 4 5 7 9 10
4 2 3 1 4 4 7 7 5 7 5 6 5 3 3 3 4 3 3 5 5 4 6 4 3 3 3 3 3 6 9 9 4 3 2 3 6 5 3 3 3 4 5 6 6 7 7 6 5
5 2 0 3 4 2 4 4 6 6 6 7 6 6 6 6 6 5 6 7 7 7 7 4 3 4 4 3 4 6 9 9 7 4 2 2 2 4 3 4 4 4 4 5 6 7 8 6 6
6 4 4 2 3 1 0 4 6 6 6 7 6 6 7 9 10 9 10 9 7 7 8 8 6 5 5 5 5 7 12 10 8 7 6 4 4 3 5 5 4 4 5 4 6 6 7 5 5
5 6 4 5 3 3 4 5 8 9 9 8 7 8 10 12 14 13 11 10 11 11 9 6 5 6 6 5 5 9 10 10 12 9 5 5 5 4 4 6 5 5 6 6 5 5 5 5 5
10 8 3 4 5 2 13 12 10 7 11 12 10 9 11 15 14 15 13 10 9 8 8 8 8 7 7 6 7 8 9 11 11 9 6 8 9 6 6 7 6 7 6 5 6 6 7 5 5
5 15 2 15 7 7 6 3 10 12 10 14 14 12 14 12 13 16 16 14 11 8 6 8 10 11 9 9 8 8 11 9 12 16 11 12 13 10 8 8 7 11 8 7 7 8 6 5 7
9 2 2 6 4 5 5 6 11 10 10 11 15 17 18 17 14 14 14 17 13 11 10 11 9 10 7 9 11 10 8 8 14 18 10 17 16 11 6 10 10 10 8 8 7 7 6 5 7
12 4 6 6 8 5 5 7 7 5 14 7 12 18 21 18 13 14 15 17 16 14 13 9 11 10 14 11 8 10 8 8 9 13 7 11 21 16 11 12 11 9 10 8 8 8 6 7 5
5 3 9 8 10 5 4 5 6 7 9 6 8 16 21 15 11 13 15 13 16 19 16 15 13 13 8 8 9 12 11 8 9 13 13 17 21 19 15 12 9 9 11 11 13 8 8 7 5
2 6 8 9 4 3 4 5 5 8 4 3 8 12 16 12 7 9 12 16 20 22 20 16 12 9 8 8 9 11 12 9 9 10 5 4 17 14 16 13 12 12 12 14 13 10 9 6 7
8 11 9 3 6 14 4 5 6 7 6 6 8 11 12 12 7 8 12 16 21 21 18 23 15 13 7 6 8 8 10 5 9 8 7 4 7 7 8 10 3 12 12 16 18 15 12 9 8
2 20 6 3 3 1 3 7 3 8 14 12 14 16 12 11 11 11 13 15 15 19 18 20 23 13 9 7 6 7 8 9 10 7 8 11 11 11 10 11 7 11 11 13 16 20 16 10 11
9 4 1 2 2 1 2 12 7 4 4 7 9 11 12 12 14 13 13 13 18 14 16 18 21 16 13 13 10 7 7 9 8 10 10 10 11 11 12 12 10 11 11 8 8 9 16 18 14
3 2 13 10 2 3 9 3 11 11 12 11 11 15 16 15 11 15 17 17 18 14 13 13 18 17 18 12 13 11 10 11 11 10 11 12 13 15 14 15 13 13 15 12 10 12 15 16 16
1 5 6 4 5 11 3 2 13 5 13 17 12 16 16 18 20 19 19 19 20 19 17 16 15 16 16 16 15 12 12 12 12 13 13 12 14 16 17 17 16 15 17 13 13 15 16 18 19
10 5 6 7 7 9 6 3 15 22 18 18 15 18 17 19 21 22 22 20 21 16 14 17 20 17 16 19 17 15 14 16 15 16 15 15 15 17 19 19 18 18 19 19 17 20 21 19 20
3 5 9 7 7 7 9 7 12 10 10 10 10 20 19 23 21 20 23 24 20 19 17 19 20 22 21 17 20 22 22 21 16 15 17 17 17 18 19 21 19 21 22 21 21 24 26 22 21
15 10 4 8 8 7 6 7 14 19 22 15 15 23 23 24 22 25 28 28 28 23 22 22 25 23 24 24 19 21 18 24 13 14 15 15 18 22 21 24 23 20 25 24 26 26 27 28 24
5 6 7 9 8 9 9 13 19 24 31 24 20 30 26 32 24 27 29 30 29 27 25 25 28 27 25 24 25 19 18 14 15 16 16 19 20 22 23 24 25 23 24 27 28 30 28 30 28
19 13 9 8 13 11 13 20 32 32 33 22 25 31 28 28 28 29 30 30 31 31 27 29 33 30 31 26 26 27 22 19 19 21 20 20 20 17 19 21 23 23 26 29 30 30 27 30 30
Wind_Direction
55 49 67 60 56 83 349 3 10 15 348 339 31 48 77 105 75 233 352 303 80 89 90 92 104 103 111 109 111 120 136 142 180 189 208 219 203 183 169 166 143 120 118 124 124 121 127 168 144
44 56 66 67 72 347 326 345 351 345 343 4 21 360 14 66 59 41 352 325 305 138 126 106 105 109 100 101 102 124 137 318 327 272 257 239 207 187 175 163 139 119 116 107 119 118 110 73 72
54 35 33 44 167 300 305 309 343 3 357 358 336 326 328 343 20 44 9 338 313 322 80 120 123 113 102 120 122 106 77 338 329 35 279 260 235 208 165 144 117 104 105 122 115 95 132 102 36
25 27 42 15 355 304 305 317 322 24 344 334 321 321 302 306 269 26 17 341 315 307 356 144 153 136 128 130 124 122 106 104 41 354 0 290 263 256 139 126 119 108 99 99 93 96 104 13 353
26 21 10 321 321 333 334 345 358 354 6 3 3 355 344 301 249 326 341 343 333 326 320 185 178 162 143 139 155 115 97 299 337 343 347 333 293 251 133 94 105 99 92 78 101 104 92 78 223
24 66 23 281 324 352 338 5 21 342 359 1 1 3 7 342 249 333 327 320 345 328 331 305 202 189 179 163 183 289 324 344 350 349 348 349 335 235 172 113 97 91 95 73 108 103 94 98 105
347 36 36 314 340 313 328 344 2 32 14 323 311 345 356 348 299 275 308 324 330 331 337 335 219 217 219 184 214 245 299 324 334 351 337 15 65 127 185 98 103 87 89 70 105 95 97 106 99
71 45 334 309 261 305 316 323 312 319 323 332 358 312 9 6 332 296 303 298 305 323 328 293 243 233 225 221 230 246 284 313 320 330 278 276 42 129 155 89 95 98 99 78 77 99 118 118 116
54 99 134 185 4 337 341 339 349 347 330 359 23 29 21 23 334 273 285 296 312 334 333 319 282 258 241 186 220 238 245 276 316 338 298 279 101 127 120 97 103 108 90 86 98 119 127 142 133
30 214 109 70 323 6 345 340 6 7 335 9 15 9 344 338 346 342 348 347 338 356 356 328 273 252 252 214 220 225 244 221 253 331 327 228 205 116 95 121 111 125 113 107 118 130 125 130 136
150 75 32 300 317 349 346 356 42 43 9 30 25 15 355 5 6 4 339 329 316 324 322 334 317 268 255 222 229 240 263 245 193 223 99 130 175 139 152 147 151 145 139 134 130 130 125 131 139
302 175 211 327 307 7 31 0 45 74 47 41 25 20 18 28 21 347 319 311 302 300 320 311 311 276 270 237 250 248 260 256 217 194 209 56 224 168 168 167 180 162 168 157 147 135 127 143 131
147 148 57 22 309 134 144 55 32 47 51 42 30 18 20 16 12 10 1 347 336 314 308 287 298 291 276 237 234 262 266 263 273 211 188 201 265 263 189 174 162 166 166 164 166 148 135 139 131
154 83 60 346 351 45 35 34 21 343 13 42 47 45 32 33 27 20 11 5 3 352 328 305 284 274 273 239 236 251 258 264 270 242 215 204 209 221 189 171 174 182 178 172 183 175 160 168 160
81 52 357 310 354 46 62 13 351 344 351 2 33 28 34 38 31 18 14 21 14 10 347 328 322 308 286 268 256 255 263 266 287 289 203 240 212 205 226 212 208 195 182 170 182 169 153 161 162
51 43 69 286 345 358 88 6 311 320 343 350 7 22 25 27 27 21 26 13 0 6 347 350 326 307 299 296 286 269 270 291 281 293 270 231 227 205 217 224 228 192 190 170 174 162 168 163 181
11 303 283 322 329 334 343 197 281 318 327 342 357 27 26 21 16 17 12 2 11 357 349 341 331 307 286 284 292 281 294 304 299 279 251 222 220 210 221 208 200 191 178 177 176 177 180 171 157
234 152 301 323 278 275 286 295 297 314 310 331 344 5 25 15 17 26 25 17 13 9 10 355 343 329 315 262 288 288 291 277 324 321 270 248 219 202 211 193 198 184 186 183 184 184 184 178 162
237 289 294 295 292 278 282 269 286 276 247 282 332 1 22 33 31 50 43 29 13 6 12 3 347 350 348 321 307 305 296 291 303 306 298 256 201 202 199 176 203 179 193 192 205 190 203 206 207
300 312 331 295 326 345 351 299 252 230 215 289 317 328 356 12 16 24 24 14 0 354 350 344 341 353 355 327 317 321 320 293 303 301 286 144 188 200 224 192 198 193 201 204 205 202 197 203 195
6 280 279 268 85 14 8 328 321 246 247 277 295 310 330 352 353 7 4 4 1 1 6 352 328 319 334 354 334 328 326 310 321 306 306 248 250 249 205 215 188 198 214 210 195 197 207 202 206
34 262 265 171 23 135 257 310 226 290 281 273 285 309 322 329 336 339 358 358 6 2 352 355 351 331 324 320 339 340 342 337 312 295 284 271 265 265 247 253 247 236 259 243 223 194 216 234 209
218 271 231 72 116 314 33 263 158 343 233 282 288 302 310 304 313 327 343 335 346 351 360 2 8 354 325 327 318 321 296 299 300 299 291 274 301 276 270 262 255 252 246 245 262 238 221 228 213
257 110 30 1 22 209 243 262 170 164 259 268 290 292 289 277 266 296 319 313 323 334 333 337 350 357 350 316 304 292 291 286 290 285 283 282 270 272 269 264 261 253 244 254 257 237 235 221 216
308 46 333 255 298 289 246 182 288 297 279 266 269 273 281 275 275 287 301 304 306 304 318 314 329 332 333 325 333 292 275 283 284 285 279 272 275 276 274 272 268 260 245 249 246 235 227 228 231
265 227 256 248 222 239 274 240 237 261 280 259 260 268 265 268 273 281 289 289 300 295 294 301 309 315 313 311 316 314 288 277 278 284 289 286 283 286 281 277 275 265 262 255 248 233 229 229 234
208 193 264 207 285 251 225 288 305 253 298 289 274 266 264 268 271 273 276 282 288 292 292 294 300 303 310 310 304 306 311 304 268 274 279 280 279 275 278 277 270 268 264 262 255 248 251 241 237
180 223 238 209 238 253 291 324 243 260 282 288 287 281 277 271 271 267 270 274 276 282 283 284 289 292 296 301 305 304 305 286 268 267 275 288 295 282 274 282 270 270 267 266 264 258 245 239 235
267 245 246 256 234 266 280 285 272 270 273 281 281 284 276 287 277 271 272 274 278 278 274 275 281 288 290 290 294 297 299 293 289 285 284 280 293 295 287 275 274 277 277 270 266 262 243 232 239
205 220 251 251 282 279 293 276 280 287 284 285 278 282 285 283 284 276 272 270 272 273 275 268 274 269 287 284 280 280 281 286 291 295 290 282 282 299 285 287 279 285 281 275 262 248 238 233 232
Height
5913 5913 5913 5915 5917 5914 5914 5912 5910 5909 5907 5906 5904 5903 5902 5901 5899 5901 5898 5897 5896 5895 5895 5894 5893 5893 5893 5893 5893 5894 5894 5894 5894 5894 5894 5894 5893 5893 5893 5894 5894 5894 5895 5893 5892 5893 5893 5894 5895
5914 5914 5915 5915 5912 5916 5914 5913 5910 5909 5907 5906 5905 5904 5902 5901 5899 5898 5898 5897 5896 5895 5895 5895 5894 5893 5894 5893 5893 5894 5896 5895 5894 5894 5892 5891 5890 5892 5893 5893 5893 5893 5894 5894 5893 5893 5893 5893 5894
5915 5915 5916 5917 5918 5917 5916 5912 5910 5909 5907 5906 5905 5903 5902 5901 5899 5899 5898 5897 5897 5896 5895 5895 5895 5894 5895 5894 5894 5895 5896 5895 5894 5893 5893 5891 5890 5891 5891 5893 5893 5893 5894 5894 5894 5893 5893 5893 5894
5916 5917 5916 5897 5915 5915 5914 5912 5910 5910 5908 5906 5904 5903 5901 5900 5900 5899 5898 5898 5898 5897 5896 5895 5896 5896 5896 5896 5895 5895 5894 5894 5892 5893 5893 5892 5893 5893 5892 5891 5892 5893 5893 5894 5894 5893 5894 5894 5894
5916 5916 5918 5917 5914 5914 5913 5912 5910 5910 5908 5906 5904 5903 5901 5901 5901 5900 5898 5898 5898 5897 5896 5895 5896 5897 5897 5896 5896 5895 5895 5895 5894 5894 5892 5892 5892 5892 5893 5893 5893 5892 5893 5895 5895 5895 5895 5895 5895
5917 5919 5921 5918 5913 5914 5912 5911 5912 5910 5909 5907 5906 5904 5903 5902 5901 5900 5898 5897 5898 5897 5897 5897 5897 5898 5898 5897 5897 5896 5896 5896 5896 5895 5893 5892 5890 5891 5894 5895 5895 5894 5893 5895 5896 5895 5895 5895 5895
5919 5920 5922 5918 5919 5914 5912 5912 5912 5910 5909 5909 5907 5905 5904 5902 5901 5900 5899 5897 5897 5897 5896 5896 5898 5898 5899 5898 5898 5897 5896 5897 5897 5895 5894 5894 5892 5891 5895 5895 5895 5895 5895 5895 5896 5896 5896 5896 5896
5920 5925 5924 5919 5915 5913 5912 5912 5911 5910 5909 5908 5906 5908 5904 5902 5901 5900 5899 5898 5897 5897 5896 5896 5897 5897 5898 5898 5897 5898 5898 5897 5896 5895 5894 5894 5894 5893 5895 5896 5895 5896 5896 5896 5896 5897 5897 5898 5899
5923 5928 5925 5922 5916 5911 5911 5911 5911 5911 5909 5908 5907 5905 5904 5903 5902 5900 5899 5899 5898 5897 5896 5896 5897 5897 5898 5898 5897 5897 5897 5897 5897 5895 5894 5894 5893 5894 5895 5896 5896 5897 5898 5897 5897 5898 5898 5899 5900
5928 5922 5920 5921 5919 5913 5911 5912 5914 5914 5910 5908 5907 5906 5904 5903 5902 5901 5900 5900 5899 5898 5897 5896 5896 5896 5896 5897 5897 5897 5896 5895 5896 5896 5895 5894 5895 5895 5896 5897 5897 5897 5898 5898 5898 5899 5900 5901 5902
5925 5922 5921 5918 5916 5915 5914 5914 5915 5912 5910 5909 5908 5906 5905 5903 5903 5902 5901 5900 5899 5898 5898 5897 5896 5896 5896 5895 5896 5896 5895 5894 5895 5895 5893 5894 5895 5896 5897 5898 5898 5898 5898 5899 5900 5900 5901 5902 5903
5926 5922 5921 5919 5917 5916 5916 5915 5916 5913 5911 5910 5908 5906 5906 5905 5903 5902 5901 5900 5899 5898 5897 5897 5896 5895 5895 5897 5896 5895 5895 5894 5892 5893 5895 5895 5895 5896 5898 5898 5899 5899 5899 5899 5900 5900 5901 5902 5903
5926 5923 5922 5921 5920 5919 5917 5916 5914 5914 5912 5910 5909 5908 5907 5906 5905 5903 5902 5900 5898 5897 5898 5898 5897 5896 5895 5895 5895 5895 5896 5893 5892 5891 5892 5895 5896 5895 5896 5898 5899 5899 5899 5900 5900 5901 5902 5902 5903
5924 5923 5924 5923 5921 5920 5919 5918 5916 5915 5913 5912 5910 5909 5907 5907 5906 5904 5902 5901 5900 5899 5898 5896 5896 5895 5895 5895 5894 5893 5892 5893 5892 5890 5891 5894 5895 5896 5896 5898 5899 5899 5900 5900 5901 5902 5902 5903 5904
5923 5925 5928 5925 5922 5921 5922 5922 5920 5917 5914 5912 5911 5910 5909 5908 5906 5904 5903 5901 5900 5898 5896 5896 5897 5896 5896 5896 5894 5892 5889 5889 5891 5889 5889 5893 5894 5895 5897 5898 5898 5899 5900 5900 5900 5902 5903 5903 5904
5928 5928 5932 5926 5923 5921 5923 5927 5925 5918 5916 5913 5912 5911 5911 5909 5907 5905 5903 5902 5900 5897 5896 5897 5896 5897 5898 5897 5895 5893 5889 5889 5889 5890 5890 5890 5893 5893 5895 5897 5898 5898 5899 5899 5900 5902 5903 5903 5904
5932 5934 5930 5928 5924 5923 5922 5924 5924 5920 5918 5916 5913 5912 5912 5910 5909 5907 5905 5902 5901 5899 5899 5898 5896 5894 5895 5895 5894 5893 5891 5890 5889 5886 5888 5890 5891 5892 5893 5894 5895 5897 5898 5899 5900 5902 5904 5904 5904
5932 5936 5931 5928 5927 5922 5923 5924 5924 5924 5919 5918 5916 5913 5913 5912 5910 5909 5906 5904 5901 5899 5899 5898 5896 5893 5893 5894 5893 5893 5891 5889 5888 5886 5885 5888 5888 5889 5891 5893 5894 5896 5898 5899 5900 5901 5902 5903 5904
5927 5929 5930 5928 5924 5922 5921 5921 5922 5922 5922 5920 5918 5915 5915 5913 5912 5910 5908 5905 5902 5899 5900 5899 5897 5896 5895 5892 5893 5893 5891 5889 5886 5885 5883 5880 5884 5886 5889 5891 5893 5894 5896 5897 5898 5900 5902 5903 5904
5925 5928 5930 5925 5922 5921 5921 5921 5920 5919 5919 5919 5919 5918 5916 5916 5914 5912 5909 5906 5904 5900 5898 5897 5895 5896 5895 5893 5893 5891 5890 5888 5887 5885 5884 5883 5885 5885 5886 5889 5891 5892 5894 5895 5894 5898 5899 5902 5904
5929 5929 5923 5922 5921 5922 5923 5922 5921 5919 5919 5919 5919 5917 5917 5915 5915 5913 5910 5907 5905 5901 5897 5893 5893 5891 5893 5892 5891 5889 5886 5884 5887 5886 5886 5886 5886 5886 5886 5888 5889 5892 5892 5890 5892 5896 5895 5900 5903
5928 5922 5921 5920 5922 5929 5924 5919 5921 5920 5918 5918 5917 5916 5915 5914 5913 5912 5910 5909 5907 5903 5900 5896 5891 5890 5891 5890 5889 5886 5885 5885 5887 5887 5887 5886 5885 5884 5885 5881 5888 5889 5890 5891 5891 5894 5896 5899 5901
5921 5919 5919 5919 5920 5926 5927 5924 5917 5918 5918 5919 5917 5916 5915 5913 5911 5910 5910 5909 5908 5905 5901 5897 5892 5888 5889 5887 5887 5884 5884 5886 5886 5885 5886 5885 5885 5886 5885 5886 5886 5887 5889 5890 5890 5891 5894 5897 5899
5917 5919 5918 5921 5922 5927 5926 5925 5909 5906 5915 5915 5915 5914 5913 5912 5914 5910 5909 5908 5907 5905 5901 5898 5895 5892 5890 5887 5887 5887 5885 5885 5885 5885 5884 5885 5885 5885 5885 5885 5885 5879 5886 5888 5889 5891 5893 5895 5897
5917 5919 5925 5927 5927 5922 5925 5925 5917 5916 5914 5914 5913 5911 5910 5910 5910 5909 5908 5906 5905 5904 5900 5897 5896 5893 5890 5888 5886 5884 5883 5883 5883 5883 5884 5882 5883 5883 5884 5884 5885 5884 5885 5885 5886 5888 5891 5893 5895
5921 5922 5924 5925 5923 5921 5923 5923 5920 5915 5915 5912 5911 5908 5908 5907 5907 5907 5906 5905 5903 5901 5899 5897 5893 5892 5890 5886 5883 5882 5881 5880 5880 5880 5881 5881 5879 5879 5879 5880 5881 5882 5884 5885 5884 5884 5885 5889 5891
5920 5919 5920 5921 5924 5923 5924 5920 5918 5912 5913 5909 5908 5903 5904 5903 5903 5903 5902 5901 5900 5897 5895 5893 5890 5888 5885 5884 5881 5878 5877 5875 5876 5875 5875 5875 5876 5876 5876 5876 5877 5878 5880 5881 5882 5881 5882 5884 5887
5911 5913 5920 5919 5919 5920 5914 5918 5916 5909 5910 5907 5903 5899 5898 5897 5898 5897 5896 5896 5895 5893 5890 5888 5885 5884 5882 5879 5878 5876 5873 5871 5873 5872 5871 5871 5872 5872 5871 5871 5872 5872 5874 5876 5877 5877 5878 5880 5882
5910 5912 5915 5918 5917 5918 5918 5910 5907 5907 5905 5904 5901 5892 5894 5889 5893 5891 5890 5888 5887 5886 5885 5883 5880 5877 5876 5875 5873 5873 5871 5869 5869 5869 5868 5867 5867 5866 5866 5866 5867 5866 5867 5868 5869 5870 5870 5873 5876
5906 5908 5910 5914 5914 5912 5911 5913 5901 5901 5897 5896 5893 5888 5887 5885 5884 5883 5882 5880 5879 5878 5876 5873 5872 5871 5870 5870 5870 5868 5869 5867 5866 5864 5863 5862 5861 5859 5860 5859 5859 5859 5860 5861 5861 5863 5864 5867 5870